一网星座-0362星 (ONEWEB-0362 )

导读 | 星芒AI

ONEWEB-0362 是 OneWeb 卫星星座计划中的一颗低轨通信卫星,旨在为全球提供高速互联网服务。该卫星采用标准化设计,具备高容量通信能力,支持偏远和农村地区的网络接入。作为 OneWeb 扩展其卫星网络的一部分,ONEWEB-0362 于近期成功发射并部署至预定轨道,进一步增强其全球宽带覆盖能力。该卫星系统致力于实现全球无缝连接,推动数字包容性发展。

基本信息
目录编号:
49288
目录名称:
ONEWEB-0362
国际标识:
2021-090K
轨道中心:
EARTH
卫星名称:
一网星座-0362星
卫星全名:
一网星座-0362星 (ONEWEB-0362 )
卫星状态:
在轨 (已飞行1523 天)
发射日期:
2021-10-14 UTC
国别 :
英国 (GB)
星等 :
--
轨道信息
数据来源 国际轨道数据
星历时间: 2025-12-15T06:37:06+0800
20小时前
查看轨道信息
半长轴: 7563.91km
偏心率: 0.0001692
轨道倾角: 87.919°
近地点辐角 79.556°
升交点赤经 341.646°
平近点角 280.576°
近地点: 1184.495km
远地点: 1187.055km
周期: 109.114分钟
每日圈数: 13.197245
详细信息
平衡模式:
三轴稳定
覆盖范围:
全球
运营商:
一网卫星公司
运营商所在国:
英国
制造商(研发单位):
一网卫星公司
制造商所在国:
英国
使用方式:
暂无
卫星简介
OneWeb卫星网络由648颗重约125公斤的微型卫星组成,运行在1200公里的轨道上。 每颗卫星都能够提供至少每秒8千兆位的吞吐量,以使用其高吞吐量的Ku频段有效载荷为家庭和移动平台提供互联网接入。该卫星仍在工作。
2D轨道图
3D轨道图
轨道高度分析图
轨道倾角分析图
轨道综合分析图
查看轨道综合分析图